Location: Grieser Field
(39.7333°N, 81.7975°W)
Time: 13:58:30
(UTC-04:00)

Meteor 2-1 Rocket - Visible Passes

Search period start: 31 May 2016 00:00
Search period end: 10 June 2016 00:00
Orbit: 831 x 906 km, 81.3° (Epoch: 31 May)

Date Brightness Start Highest point End Pass type
(mag) Time Alt. Az. Time Alt. Az. Time Alt. Az.
31 May 4.6 00:57:21 10° NNW 01:03:02 53° W 01:03:14 53° W visible
31 May 5.8 23:08:21 10° NNE 23:12:45 21° ENE 23:14:19 19° E visible
01 Jun 4.6 00:50:43 10° NNW 00:56:23 52° W 00:56:43 51° WSW visible
01 Jun 5.8 23:01:41 10° NNE 23:06:07 22° ENE 23:07:48 19° E visible
02 Jun 4.7 00:44:05 10° NNW 00:49:44 50° W 00:50:12 49° WSW visible
02 Jun 5.8 22:55:00 10° NNE 22:59:28 22° ENE 23:01:19 19° E visible
03 Jun 4.7 00:37:27 10° NNW 00:43:04 49° W 00:43:42 47° WSW visible
03 Jun 5.7 22:48:19 10° NNE 22:52:50 23° ENE 22:54:49 19° E visible
04 Jun 4.8 00:30:49 10° NNW 00:36:24 48° W 00:37:13 45° WSW visible
04 Jun 5.7 22:41:38 10° NNE 22:46:12 23° ENE 22:48:21 19° E visible
05 Jun 4.8 00:24:11 10° NNW 00:29:45 47° W 00:30:45 43° WSW visible
05 Jun 5.7 22:34:57 10° NNE 22:39:33 23° ENE 22:41:53 18° ESE visible
06 Jun 4.9 00:17:33 10° NNW 00:23:06 46° W 00:24:17 40° SW visible
06 Jun 5.7 22:28:17 10° NNE 22:32:55 24° ENE 22:35:27 18° ESE visible
07 Jun 5.0 00:10:56 10° NNW 00:16:26 45° W 00:17:51 38° SW visible
07 Jun 5.6 22:21:36 10° NNE 22:26:17 24° ENE 22:29:01 17° ESE visible
08 Jun 5.0 00:04:17 10° NNW 00:09:46 44° W 00:11:25 35° SW visible
08 Jun 5.6 22:14:55 10° NNE 22:19:38 25° ENE 22:22:37 17° ESE visible
08 Jun 5.1 23:57:39 10° NNW 00:03:07 43° W 00:05:01 32° SW visible
09 Jun 5.5 22:08:15 10° NNE 22:13:00 25° ENE 22:16:13 16° ESE visible
